Decatur, IL

5:37 AM CST on January 16, 2017 (GMT -0600)
Decatur

Weather History for KDEC - January, 2014

Change the Weather History Date:

Thursday, January 16, 2014

  Actual Average Record
Temperature  
Mean Temperature 32 °F 27 °F  
Max Temperature 40 °F 35 °F 43 °F (2015)
Min Temperature 23 °F 19 °F 23 °F (2016)
Degree Days  
Heating Degree Days 33 38  
Month to date heating degree days 602 603  
Since 1 July heating degree days 2877 2742  
Cooling Degree Days 0 0  
Month to date cooling degree days 0 0  
Year to date cooling degree days 0 0  
Moisture  
Dew Point 24 °F    
Average Humidity 76    
Maximum Humidity 88    
Minimum Humidity 63    
Precipitation  
Precipitation 0.00 in 0.07 in 0.00 in (2017)
Month to date precipitation 0.71 1.05  
Year to date precipitation 0.71 1.05  
Sea Level Pressure  
Sea Level Pressure 29.73 in    
Wind  
Wind Speed 15 mph (SW)    
Max Wind Speed 29 mph    
Max Gust Speed 41 mph    
Visibility 8 miles    
Events Fog , Rain , Snow    
T = Trace of Precipitation, MM = Missing Value Source: NWS Daily Summary

Daily Weather History Graph

Daily Weather History Graph

Search for Another Location

Airport or City:

Trip Planner

Search our weather history database for the weather conditions in past years. The results will help you decide how hot, cold, wet, or windy it might be!

Date:

Astronomy

Jan. 16, 2014 Rise Set
Actual Time 7:14 AM CST 4:56 PM CST
Civil Twilight 6:44 AM CST 5:25 PM CST
Nautical Twilight 6:11 AM CST 5:59 PM CST
Astronomical Twilight 5:39 AM CST 6:31 PM CST
Moon 5:47 PM CST 7:08 AM CST
Length of Visible Light 10h 40m
Length of Day
9h 41m
Full, 100% of the Moon is Illuminated
Jan 16
Full
Jan 23
Last Quarter
Jan 30
New
Feb 6
First Quarter
Feb 14
Full

Hourly Weather History & Observations

Time (CST) Temp. Windchill Dew Point Humidity Pressure Visibility Wind Dir Wind Speed Gust Speed Precip Events Conditions
12:54 AM 24.1 °F 12.5 °F 15.1 °F 69% 29.94 in 10.0 mi South 12.7 mph - N/A   Overcast
1:54 AM 25.0 °F 13.1 °F 15.1 °F 66% 29.91 in 10.0 mi South 13.8 mph - N/A   Overcast
2:54 AM 26.1 °F 13.1 °F 16.0 °F 66% 29.87 in 10.0 mi SSW 17.3 mph - N/A   Overcast
3:16 AM 26.6 °F 13.8 °F 17.6 °F 69% 29.82 in 2.5 mi SSW 17.3 mph 32.2 mph 0.00 in Snow Light Snow
3:54 AM 25.0 °F 12.2 °F 19.9 °F 81% 29.81 in 2.0 mi SSW 16.1 mph 26.5 mph 0.00 in Snow Light Snow
4:22 AM 24.8 °F 11.1 °F 21.2 °F 86% 29.77 in 1.2 mi SSW 18.4 mph 28.8 mph 0.00 in Snow Light Snow
4:34 AM 24.8 °F 11.5 °F 21.2 °F 86% 29.76 in 1.0 mi South 17.3 mph 27.6 mph 0.00 in Snow Light Snow
4:54 AM 25.0 °F 11.7 °F 21.9 °F 88% 29.78 in 1.5 mi South 17.3 mph - 0.00 in Snow Light Snow
5:01 AM 24.8 °F 10.7 °F 21.2 °F 86% 29.74 in 3.0 mi South 19.6 mph - 0.00 in Snow Light Snow
5:16 AM 26.6 °F 12.7 °F 21.2 °F 80% 29.73 in 10.0 mi SSW 20.7 mph 27.6 mph 0.00 in Snow Light Snow
5:42 AM 26.6 °F 13.1 °F 21.2 °F 80% 29.73 in 10.0 mi SSW 19.6 mph 29.9 mph 0.00 in Rain Light Freezing Rain
5:54 AM 26.1 °F 12.3 °F 21.9 °F 84% 29.76 in 10.0 mi SSW 19.6 mph 28.8 mph 0.00 in Rain Light Freezing Rain
6:42 AM 26.6 °F 13.4 °F 23.0 °F 86% 29.70 in 10.0 mi SSW 18.4 mph 29.9 mph 0.00 in   Overcast
6:54 AM 27.0 °F 12.8 °F 23.0 °F 85% 29.73 in 10.0 mi SSW 21.9 mph 28.8 mph 0.00 in   Overcast
7:54 AM 28.0 °F 14.6 °F 24.1 °F 85% 29.74 in 10.0 mi SSW 20.7 mph 24.2 mph 0.00 in   Overcast
8:43 AM 28.4 °F 16.6 °F 24.8 °F 86% 29.71 in 10.0 mi SSW 16.1 mph - 0.00 in Rain Light Freezing Rain
8:54 AM 28.9 °F 16.9 °F 24.1 °F 82% 29.73 in 10.0 mi SSW 17.3 mph - 0.00 in Rain Light Freezing Rain
9:28 AM 30.2 °F 17.1 °F 24.8 °F 80% 29.71 in 4.0 mi SSW 21.9 mph 29.9 mph 0.00 in Snow Light Snow
9:54 AM 30.0 °F 16.9 °F 24.1 °F 79% 29.73 in 9.0 mi SSW 21.9 mph 28.8 mph 0.00 in Rain Light Freezing Rain
9:56 AM 30.2 °F 17.8 °F 24.8 °F 80% 29.71 in 4.0 mi SSW 19.6 mph - 0.00 in Snow Light Snow
9:58 AM 30.2 °F 17.1 °F 24.8 °F 80% 29.71 in 1.8 mi SSW 21.9 mph 28.8 mph 0.00 in Snow Light Snow
10:05 AM 28.4 °F 14.7 °F 24.8 °F 86% 29.70 in 0.5 mi SSW 21.9 mph 28.8 mph 0.00 in Fog , Snow Snow
10:14 AM 30.2 °F 17.1 °F 24.8 °F 80% 29.70 in 2.5 mi SSW 21.9 mph - 0.00 in Snow Light Snow
10:17 AM 30.2 °F 17.8 °F 24.8 °F 80% 29.70 in 5.0 mi SSW 19.6 mph - 0.00 in Snow Light Snow
10:26 AM 30.2 °F 17.4 °F 24.8 °F 80% 29.69 in 10.0 mi SSW 20.7 mph 26.5 mph 0.00 in Rain Light Freezing Rain
10:54 AM 32.0 °F 19.8 °F 24.1 °F 73% 29.71 in 10.0 mi SSW 20.7 mph 27.6 mph 0.00 in   Overcast
11:54 AM 35.1 °F 25.2 °F 26.1 °F 70% 29.67 in 10.0 mi SW 16.1 mph - N/A   Overcast
12:54 PM 37.0 °F 28.1 °F 27.0 °F 67% 29.64 in 10.0 mi SW 15.0 mph - N/A   Partly Cloudy
1:54 PM 39.0 °F 30.3 °F 28.0 °F 65% 29.63 in 10.0 mi SW 16.1 mph 23.0 mph N/A   Overcast
2:54 PM 39.9 °F 32.5 °F 30.0 °F 68% 29.63 in 10.0 mi WSW 12.7 mph - 0.00 in Rain Light Rain
3:24 PM 35.6 °F 24.5 °F 30.2 °F 81% 29.65 in 9.0 mi WNW 20.7 mph 34.5 mph 0.00 in Rain Light Freezing Rain
3:54 PM 35.1 °F 25.9 °F 28.9 °F 78% 29.68 in 10.0 mi WNW 13.8 mph 23.0 mph 0.00 in   Overcast
4:54 PM 36.0 °F 27.5 °F 25.0 °F 64% 29.71 in 10.0 mi West 12.7 mph 28.8 mph 0.00 in   Scattered Clouds
5:54 PM 35.1 °F 27.9 °F 25.0 °F 67% 29.73 in 10.0 mi West 9.2 mph - N/A   Overcast
6:54 PM 35.1 °F 30.1 °F 25.0 °F 67% 29.74 in 10.0 mi West 5.8 mph - N/A   Overcast
7:54 PM 33.1 °F 27.7 °F 25.0 °F 72% 29.75 in 10.0 mi SSW 5.8 mph - N/A   Overcast
8:54 PM 32.0 °F 24.8 °F 26.1 °F 79% 29.74 in 10.0 mi SW 8.1 mph - N/A   Overcast
9:41 PM 33.8 °F 24.8 °F 28.4 °F 81% 29.72 in 9.0 mi SW 12.7 mph 18.4 mph 0.00 in Snow Light Snow
9:54 PM 33.1 °F 23.9 °F 28.9 °F 85% 29.74 in 4.0 mi WSW 12.7 mph - 0.00 in Snow Light Snow
10:05 PM 33.8 °F 25.8 °F 30.2 °F 87% 29.72 in 9.0 mi WSW 10.4 mph - 0.00 in   Overcast
10:45 PM 33.8 °F 26.4 °F 28.4 °F 81% 29.71 in 9.0 mi West 9.2 mph - 0.00 in   Overcast
10:54 PM 33.1 °F 25.5 °F 28.0 °F 82% 29.73 in 10.0 mi West 9.2 mph - 0.00 in   Overcast
11:21 PM 28.4 °F 14.1 °F 24.8 °F 86% 29.73 in 10.0 mi West 24.2 mph 33.4 mph N/A   Overcast
11:31 PM 26.6 °F 12.0 °F 21.2 °F 80% 29.74 in 8.0 mi WNW 23.0 mph 35.7 mph 0.00 in   Overcast
11:54 PM 23.0 °F 7.6 °F 17.1 °F 78% 29.78 in 7.0 mi WNW 21.9 mph 36.8 mph 0.00 in Snow Light Snow